[[{"header":{"parameterUnit":"m.s-1","parameterCategory":1,"la1":30.2991,"la2":30.254,"lo1":-89.0895,"lo2":-89.0444,"dy":0.0017,"dx":0.0017,"nx":28,"ny":28,"refTime":"2024-09-03T03:00:00:Z","depth":0,"parameterNumber":2,"parameterNumberName":"U-component_of_WINDS"},"data":[0,0,0,0,0,0,0,0,0,0,0,0,0,0,0,0,0,0,0,0,0,0,0,0,0,0,0,0,0,0,0,0,0,0,0,0,0,0,0,0,0,0,0,0,0,0,0,0,0,0,0,0,0,0,0,0,0,0,-6.4772,-6.4772,0,-6.4838,-6.4839,-6.484,-6.4747,-6.4744,-6.474,-6.4737,-6.48,-6.4805,-6.481,0,0,0,0,0,0,0,0,0,0,0,0,0,-6.4559,-6.4564,-6.4772,-6.4772,-6.4773,-6.4838,-6.4839,-6.484,-6.4747,-6.4743,-6.4739,-6.4736,-6.4799,-6.4804,-6.481,0,0,0,0,0,0,0,0,0,0,0,0,0,-6.4641,-6.4565,-6.4771,-6.4735,-6.4733,-6.4838,-6.4839,-6.484,-6.4748,-6.4743,-6.4738,-6.4734,-6.4797,-6.4804,-6.4811,-6.4953,0,0,-6.4833,-6.4836,0,0,0,0,0,0,0,0,-6.4637,-6.4649,-6.474,-6.4738,-6.4735,-6.4779,-6.4787,-6.4878,-6.475,-6.4742,-6.4737,-6.4731,-6.4797,-6.4804,-6.4827,-6.4956,-6.4959,-6.4833,-6.4838,-6.4841,-6.4843,0,0,0,0,0,0,0,-6.4631,-6.4646,-6.4798,-6.4741,-6.4738,-6.4714,-6.472,-6.4804,-6.4796,-6.4742,-6.4736,-6.4745,-6.4795,-6.482,-6.4828,-6.496,-6.4833,-6.4839,-6.4844,-6.4847,-6.5207,-6.5212,0,0,0,0,0,0,-6.4631,-6.4642,-6.4796,-6.48,-6.4673,-6.4722,-6.4729,-6.477,-6.4795,-6.4794,-6.4749,-6.4741,-6.4811,-6.482,-6.483,-6.4995,-6.4841,-6.4847,-6.4851,-6.5201,-6.5208,-6.5214,0,0,0,0,0,0,-6.4626,-6.4645,-6.4793,-6.4719,-6.4736,-6.4731,-6.4778,-6.4774,-6.4799,-6.4801,-6.4798,-6.4777,-6.4807,-6.482,-6.4923,-6.4996,-6.485,-6.4857,-6.5195,-6.5203,-6.5211,-6.5329,0,0,0,0,0,0,-6.4621,-6.4644,-6.47,-6.4721,-6.474,-6.4887,-6.4783,-6.4779,-6.4812,-6.4802,-6.4826,-6.4825,-6.4804,-6.4913,-6.493,-6.5003,-6.4863,-6.5188,-6.5199,-6.5208,-6.5319,-6.534,-6.5359,0,0,0,0,0,-6.4614,-6.473,-6.4703,-6.4722,-6.481,-6.4891,-6.4902,-6.4877,-6.4819,-6.4873,-6.4874,-6.4824,-6.4987,-6.4924,-6.4943,-6.5019,-6.5184,-6.5196,-6.5207,-6.531,-6.5336,-6.5358,0,0,0,0,0,0,-6.4715,-6.4732,-6.4702,-6.4829,-6.486,-6.4876,-6.4943,-6.4906,-6.4953,-6.494,-6.4906,-6.4912,-6.5022,-6.5032,-6.4962,-6.5157,-6.5075,-6.5091,-6.5146,-6.5171,-6.5191,-6.5184,-6.4868,0,0,0,0,0,-6.4753,-6.482,-6.483,-6.4941,-6.4958,-6.4949,-6.4983,-6.4962,-6.4991,-6.5003,-6.5011,-6.504,-6.5097,-6.5136,-6.5189,-6.5321,-6.5323,-6.5383,-6.5403,-6.5419,-6.5432,-6.55,-6.5525,-6.5253,-6.5253,-6.5252,0,0,-6.483,-6.4848,-6.4892,-6.4962,-6.4983,-6.5051,-6.496,-6.5036,-6.5085,-6.5014,-6.5111,-6.5119,-6.5149,-6.5267,-6.5319,-6.5278,-6.5509,-6.5434,-6.5448,-6.5451,-6.5515,-6.554,-6.5563,-6.5261,-6.5259,-6.5258,0,0,-6.5005,-6.5027,-6.512,-6.5144,-6.5177,-6.517,-6.5193,-6.5215,-6.5217,-6.5315,-6.5263,-6.5321,-6.5421,-6.5443,-6.5468,-6.5653,-6.5608,-6.5671,-6.5774,-6.584,-6.5862,-6.588,-6.5942,-6.5965,-6.5685,-6.5686,-6.5686,0,-6.5096,-6.5197,-6.5172,-6.5252,-6.5283,-6.5225,-6.5317,-6.5341,-6.539,-6.5411,-6.5366,-6.5489,-6.5506,-6.5626,-6.5671,-6.5695,-6.5717,-6.5666,-6.5861,-6.588,-6.5897,-6.5955,-6.5979,-6.5693,-6.5692,-6.5691,-6.569,0,-6.5306,-6.5377,-6.5449,-6.5498,-6.5538,-6.5624,-6.561,-6.5653,-6.5629,-6.5626,-6.5725,-6.5743,-6.5798,-6.5826,-6.5802,-6.5943,-6.5916,-6.5867,-6.5782,-6.593,-6.5984,-6.6007,-6.5703,-6.57,-6.5698,-6.5696,0,0,-6.5543,-6.5579,-6.5605,-6.5626,-6.566,-6.5713,-6.5796,-6.5851,-6.5886,-6.5923,-6.5989,-6.6076,-6.603,-6.6058,-6.6037,-6.6096,-6.6236,-6.6039,-6.6039,-6.6071,-6.6388,-6.6422,-6.6449,-6.6209,-6.6213,-6.6217,-6.6384,0,-6.5715,-6.5858,-6.5838,-6.5976,-6.6039,-6.5985,-6.6057,-6.6084,-6.6085,-6.6137,-6.6137,-6.6197,-6.6135,-6.6151,-6.6207,-6.6208,-6.6299,-6.6196,-6.6266,-6.6269,-6.6256,-6.6478,-6.6514,-6.6671,-6.6406,-6.6409,-6.6412,0,-6.5933,-6.5978,-6.6122,-6.6144,-6.617,-6.6235,-6.6282,-6.6335,-6.6364,-6.636,-6.6392,-6.6361,-6.6441,-6.6359,-6.6468,-6.6398,-6.6426,-6.6431,-6.6437,-6.6438,-6.6346,-6.6481,-6.6721,-6.6743,-6.6446,-6.6443,-6.6441,0,-6.6086,-6.6183,-6.6281,-6.6301,-6.6331,-6.6377,-6.6391,-6.6416,-6.645,-6.6492,-6.6512,-6.6563,-6.659,-6.6629,-6.661,-6.6554,-6.6721,-6.6639,-6.6717,-6.6717,-6.675,-6.6748,-6.6994,-6.6777,-6.6777,-6.6776,-6.6776,0,-6.6277,-6.6366,-6.635,-6.641,-6.6507,-6.6484,-6.6581,-6.6588,-6.6611,-6.6669,-6.6627,-6.6682,-6.6657,-6.6711,-6.6698,-6.6787,-6.6801,-6.6797,-6.6792,-6.6799,-6.6798,-6.6813,-6.68,-6.6782,-6.6781,-6.678,-6.6779,0,-6.6463,-6.6457,-6.6559,-6.6579,-6.6586,-6.6657,-6.6673,-6.6728,-6.6726,-6.68,-6.6816,-6.6813,-6.6873,-6.686,-6.6927,-6.6918,-6.7029,-6.7013,-6.7019,-6.7014,-6.7091,-6.7082,-6.7351,-6.7383,-6.715,-6.7152,-6.7154,0,-6.6583,-6.665,-6.6678,-6.6715,-6.6732,-6.6793,-6.6827,-6.6807,-6.6844,-6.6882,-6.6932,-6.6989,-6.7033,-6.7133,-6.7134,-6.7185,-6.7166,-6.7257,-6.7173,-6.7177,-6.7162,-6.7156,-6.7161,-6.7272,-6.7274,-6.7277,-6.7278,0,-6.6795,-6.6788,-6.684,-6.6891,-6.6934,-6.6973,-6.7007,-6.704,-6.7022,-6.7066,-6.7128,-6.7162,-6.7231,-6.7287,-6.7333,-6.7346,-6.7308,-6.7306,-6.7325,-6.733,-6.733,-6.7327,-6.706,-6.7298,-6.7296,-6.7295,-6.7294,-6.7293,-6.6948,-6.7004,-6.7033,-6.7091,-6.7116,-6.7149,-6.7201,-6.7206,-6.7258,-6.7312,-6.7297,-6.7367,-6.7393,-6.7452,-6.7471,-6.7523,-6.7489,-6.7519,-6.7525,-6.7532,-6.7539,-6.7326,-6.7532,-6.7532,-6.7531,-6.7531,-6.753,0,-6.7154,-6.717,-6.7225,-6.7275,-6.7321,-6.7285,-6.7321,-6.7361,-6.7423,-6.7452,-6.7497,-6.7567,-6.7622,-6.7629,-6.7679,-6.772,-6.7704,-6.7734,-6.7728,-6.7731,-6.7569,-6.7545,-6.7746,-6.7746,-6.7746,-6.7746,-6.7746,-6.7745,-6.7267,-6.7359,-6.7356,-6.7459,-6.7474,-6.7543,-6.7566,-6.7596,-6.7618,-6.7699,-6.7744,-6.7749,-6.7768,-6.782,-6.7868,-6.7868,-6.7887,-6.7923,-6.7916,-6.7764,-6.7743,-6.7722,-6.7699,-6.7928,-6.7928,-6.8072,-6.8074,-6.8075]},{"header":{"parameterUnit":"m.s-1","parameterCategory":1,"la1":30.2991,"la2":30.254,"lo1":-89.0895,"lo2":-89.0444,"dy":0.0017,"dx":0.0017,"nx":28,"ny":28,"refTime":"2024-09-03T03:00:00:Z","depth":0,"parameterNumber":3,"parameterNumberName":"V-component_of_WINDS"},"data":[0,0,0,0,0,0,0,0,0,0,0,0,0,0,0,0,0,0,0,0,0,0,0,0,0,0,0,0,0,0,0,0,0,0,0,0,0,0,0,0,0,0,0,0,0,0,0,0,0,0,0,0,0,0,0,0,0,0,2.4649,2.4649,0,2.4646,2.4646,2.4646,2.4619,2.4619,2.4618,2.4617,2.4613,2.4614,2.4614,0,0,0,0,0,0,0,0,0,0,0,0,0,2.4629,2.463,2.4649,2.4649,2.4649,2.4646,2.4646,2.4646,2.462,2.4619,2.4618,2.4617,2.4613,2.4614,2.4614,0,0,0,0,0,0,0,0,0,0,0,0,0,2.4634,2.463,2.4649,2.4635,2.4634,2.4646,2.4646,2.4646,2.462,2.4619,2.4618,2.4617,2.4613,2.4614,2.4614,2.4639,0,0,2.4617,2.4617,0,0,0,0,0,0,0,0,2.4633,2.4634,2.4637,2.4636,2.4635,2.4632,2.4638,2.4644,2.462,2.4625,2.4617,2.4616,2.462,2.462,2.4622,2.4639,2.4639,2.4617,2.4617,2.4618,2.4618,0,0,0,0,0,0,0,2.4633,2.4634,2.4648,2.4637,2.4636,2.4629,2.4628,2.4639,2.4628,2.4624,2.4623,2.4623,2.4619,2.4621,2.4622,2.4639,2.4617,2.4617,2.4618,2.4618,2.4677,2.4678,0,0,0,0,0,0,2.4635,2.4634,2.4648,2.4648,2.4632,2.463,2.4629,2.4634,2.4628,2.4626,2.4624,2.4621,2.4621,2.4621,2.4621,2.465,2.4618,2.4618,2.4619,2.4676,2.4677,2.4679,0,0,0,0,0,0,2.4635,2.4636,2.4648,2.464,2.4641,2.4632,2.4637,2.4634,2.4636,2.4627,2.4625,2.4628,2.462,2.462,2.4635,2.465,2.4619,2.4619,2.4675,2.4676,2.4678,2.4708,0,0,0,0,0,0,2.4634,2.4636,2.4646,2.4641,2.4642,2.4662,2.4638,2.4635,2.4638,2.4635,2.4631,2.4629,2.4619,2.4634,2.4636,2.465,2.462,2.4673,2.4676,2.4677,2.4705,2.471,2.4714,0,0,0,0,0,2.4633,2.4653,2.4646,2.4648,2.4653,2.4663,2.4663,2.4652,2.4639,2.4648,2.4643,2.4629,2.4649,2.4636,2.4638,2.4652,2.4672,2.4675,2.4677,2.4703,2.4709,2.4714,0,0,0,0,0,0,2.4659,2.4652,2.4644,2.4663,2.4664,2.4658,2.4669,2.4659,2.4662,2.4659,2.4645,2.4644,2.4661,2.4659,2.4645,2.4677,2.4658,2.4661,2.4677,2.4683,2.4687,2.4686,2.4621,0,0,0,0,0,2.4667,2.4676,2.4669,2.4687,2.4688,2.4679,2.4682,2.4674,2.4674,2.4674,2.4669,2.4669,2.4675,2.4679,2.4684,2.4706,2.4704,2.4717,2.4721,2.4725,2.4727,2.4739,2.4744,2.4687,2.4687,2.4687,0,0,2.4683,2.4681,2.4687,2.4692,2.4691,2.47,2.4679,2.4689,2.4695,2.4675,2.4688,2.4686,2.4685,2.4703,2.4711,2.4702,2.4743,2.4728,2.4731,2.4731,2.4742,2.4747,2.4752,2.4688,2.4688,2.4688,0,0,2.4716,2.4716,2.473,2.4731,2.4731,2.4726,2.4729,2.4726,2.4723,2.4737,2.4722,2.473,2.4741,2.4741,2.4742,2.4779,2.4766,2.4781,2.4804,2.4815,2.4819,2.4823,2.4836,2.484,2.4784,2.4784,2.4784,0,2.4736,2.4749,2.4739,2.4751,2.4754,2.4738,2.4752,2.4753,2.4754,2.4757,2.4746,2.4761,2.4759,2.4777,2.4786,2.4788,2.4792,2.478,2.482,2.4824,2.4827,2.4838,2.4843,2.4786,2.4786,2.4785,2.4785,0,2.4773,2.4783,2.4794,2.4797,2.4802,2.4815,2.4807,2.4813,2.4806,2.4801,2.4816,2.4814,2.4818,2.4823,2.4815,2.484,2.4834,2.4822,2.4803,2.4834,2.4845,2.4849,2.4788,2.4788,2.4787,2.4787,0,0,2.4819,2.4819,2.4823,2.4824,2.4825,2.4832,2.4845,2.4851,2.4856,2.4858,2.4868,2.4879,2.4869,2.487,2.4863,2.4873,2.4902,2.486,2.4859,2.4866,2.4929,2.4937,2.4942,2.4894,2.4895,2.4896,2.4929,0,2.485,2.4872,2.4865,2.4887,2.4896,2.4882,2.4894,2.4895,2.4892,2.4899,2.4896,2.4903,2.4889,2.489,2.49,2.4896,2.4914,2.4894,2.4902,2.4903,2.4901,2.4948,2.4955,2.4986,2.4933,2.4934,2.4934,0,2.4889,2.4894,2.4918,2.4918,2.4921,2.4932,2.4937,2.4944,2.4946,2.4943,2.4947,2.4937,2.495,2.4933,2.495,2.4937,2.494,2.4939,2.494,2.4938,2.4919,2.4946,2.4996,2.5,2.4941,2.494,2.494,0,2.4918,2.4932,2.4948,2.495,2.4951,2.4958,2.4959,2.496,2.4964,2.4969,2.4972,2.4978,2.4981,2.4986,2.4978,2.4967,2.4997,2.4979,2.4994,2.4994,2.4998,2.4998,2.5048,2.5004,2.5004,2.5004,2.5004,0,2.4953,2.4967,2.4961,2.4971,2.4987,2.498,2.4996,2.4995,2.4996,2.5005,2.4995,2.5003,2.4994,2.5002,2.4997,2.5011,2.5013,2.501,2.5008,2.501,2.501,2.5011,2.5007,2.5005,2.5005,2.5005,2.5004,0,2.4987,2.4984,2.5,2.5001,2.5002,2.5014,2.5014,2.5023,2.502,2.5032,2.5034,2.503,2.5039,2.5033,2.5041,2.5038,2.5057,2.5053,2.5056,2.5054,2.5069,2.5067,2.512,2.5126,2.508,2.508,2.508,0,2.5008,2.502,2.5022,2.5028,2.503,2.5039,2.5044,2.5038,2.5044,2.5048,2.5056,2.5065,2.5071,2.5086,2.5083,2.509,2.5084,2.5103,2.5085,2.5087,2.5083,2.5082,2.5082,2.5105,2.5106,2.5106,2.5107,0,2.5046,2.5045,2.5052,2.5061,2.5067,2.5073,2.5078,2.5083,2.5077,2.5084,2.5094,2.5099,2.5108,2.5116,2.5123,2.5123,2.5113,2.5113,2.5116,2.5117,2.5118,2.5116,2.5064,2.5111,2.511,2.511,2.511,2.511,2.5073,2.5083,2.5087,2.5096,2.51,2.5105,2.5114,2.5114,2.5122,2.513,2.5126,2.5137,2.514,2.5148,2.5149,2.5158,2.515,2.5156,2.5157,2.5158,2.5159,2.5119,2.5159,2.5159,2.5159,2.5159,2.5159,0,2.5109,2.5112,2.5121,2.5129,2.5137,2.513,2.5135,2.5142,2.5152,2.5156,2.5163,2.5175,2.5183,2.5182,2.519,2.5197,2.5193,2.5199,2.5197,2.5198,2.5166,2.5161,2.5202,2.5202,2.5202,2.5202,2.5202,2.5202,2.5129,2.5145,2.5144,2.5162,2.5164,2.5176,2.518,2.5184,2.5188,2.5202,2.5209,2.5209,2.5211,2.5219,2.5227,2.5226,2.5229,2.5237,2.5234,2.5204,2.52,2.5196,2.5191,2.5238,2.5238,2.5265,2.5265,2.5265]}]]